TBA9873 ZULS-ZLXN

Flight info

Callsign TBA9873
Flight time 2h 10m
Altitude 35100
Route DUMIX H86 OQ H15 P303
Aircraft A319/M-SDE3FGHIRWY/LB1D1

Departure

Time 2026-04-22 12:33
Airport Lhasa Gonggar International Airport (ZULS)

Arrival

Time 2026-04-22 14:43
Airport Xining Caojiabao International Airport (ZLXN)
Time Latitude Longitude Altitude Speed Heading
2026-04-22 12:09 29.29368 90.89556 11721 ft 0 kts 180°
2026-04-22 12:23 29.29372 90.89556 11715 ft 3 kts 180°
2026-04-22 12:23 29.29398 90.89556 11705 ft 4 kts 179°
2026-04-22 12:23 29.29425 90.89554 11717 ft 4 kts 167°
2026-04-22 12:24 29.29446 90.89543 11721 ft 4 kts 113°
2026-04-22 12:24 29.29449 90.89536 11721 ft 0 kts 88°
2026-04-22 12:25 29.29449 90.89540 11721 ft 2 kts 82°
2026-04-22 12:26 29.29476 90.89556 11709 ft 7 kts
2026-04-22 12:26 29.29520 90.89606 11711 ft 13 kts 85°
2026-04-22 12:26 29.29522 90.89743 11715 ft 21 kts 89°
2026-04-22 12:26 29.29525 90.89938 11720 ft 27 kts 89°
2026-04-22 12:27 29.29528 90.90154 11720 ft 27 kts 89°
2026-04-22 12:27 29.29531 90.90370 11719 ft 27 kts 89°
2026-04-22 12:27 29.29535 90.90586 11706 ft 27 kts 89°
2026-04-22 12:27 29.29538 90.90803 11710 ft 27 kts 89°
2026-04-22 12:28 29.29541 90.91018 11718 ft 27 kts 89°
2026-04-22 12:28 29.29544 90.91234 11713 ft 27 kts 89°
2026-04-22 12:28 29.29547 90.91448 11704 ft 27 kts 89°
2026-04-22 12:28 29.29551 90.91662 11709 ft 27 kts 89°
2026-04-22 12:29 29.29554 90.91873 11706 ft 27 kts 89°
2026-04-22 12:29 29.29558 90.92087 11705 ft 27 kts 89°
2026-04-22 12:29 29.29560 90.92301 11714 ft 27 kts 89°
2026-04-22 12:29 29.29563 90.92516 11715 ft 27 kts 89°
2026-04-22 12:30 29.29570 90.92945 11707 ft 27 kts 89°
2026-04-22 12:30 29.29574 90.93159 11712 ft 27 kts 89°
2026-04-22 12:30 29.29600 90.93270 11712 ft 12 kts 12°
2026-04-22 12:31 29.29684 90.93269 11701 ft 13 kts 359°
2026-04-22 12:31 29.29781 90.93268 11703 ft 14 kts 359°
2026-04-22 12:31 29.29838 90.93204 11706 ft 14 kts 270°
2026-04-22 12:31 29.29836 90.93076 11711 ft 24 kts 269°
2026-04-22 12:32 29.29829 90.92627 11714 ft 86 kts 269°
2026-04-22 12:32 29.29796 90.90471 11719 ft 179 kts 269°
2026-04-22 12:32 29.29776 90.88984 12086 ft 190 kts 269°
2026-04-22 12:33 29.29760 90.87464 12674 ft 192 kts 269°
2026-04-22 12:33 29.29739 90.85936 13257 ft 193 kts 269°
2026-04-22 12:33 29.29637 90.84363 13594 ft 207 kts 258°
2026-04-22 12:33 29.29105 90.82733 13736 ft 231 kts 246°
2026-04-22 12:34 29.28711 90.80885 13975 ft 247 kts 268°
2026-04-22 12:34 29.28974 90.78933 14479 ft 252 kts 290°
2026-04-22 12:34 29.29873 90.77219 15057 ft 253 kts 313°
2026-04-22 12:34 29.31280 90.76018 15600 ft 256 kts 335°
2026-04-22 12:35 29.33003 90.75519 16162 ft 258 kts 357°
2026-04-22 12:35 29.34777 90.75821 16734 ft 261 kts 19°
2026-04-22 12:35 29.36319 90.76909 17267 ft 265 kts 42°
2026-04-22 12:35 29.37373 90.78652 17794 ft 270 kts 66°
2026-04-22 12:36 29.37726 90.80772 18306 ft 275 kts 90°
2026-04-22 12:36 29.37370 90.82935 18795 ft 279 kts 103°
2026-04-22 12:36 29.37049 90.85189 18951 ft 296 kts 91°
2026-04-22 12:36 29.37165 90.87615 19108 ft 316 kts 78°
2026-04-22 12:37 29.37810 90.90095 19287 ft 334 kts 64°
2026-04-22 12:37 29.38984 90.92423 19771 ft 340 kts 51°
2026-04-22 12:37 29.40599 90.94411 20391 ft 342 kts 38°
2026-04-22 12:37 29.42575 90.95928 21023 ft 343 kts 24°
2026-04-22 12:38 29.44813 90.96869 21636 ft 344 kts 11°
2026-04-22 12:38 29.47188 90.97171 22264 ft 345 kts 359°
2026-04-22 12:38 29.49595 90.97287 22894 ft 348 kts
2026-04-22 12:38 29.52000 90.97669 23524 ft 352 kts
2026-04-22 12:39 29.54351 90.98356 24147 ft 357 kts 15°
2026-04-22 12:39 29.58951 91.00737 25286 ft 368 kts 30°
2026-04-22 12:39 29.60990 91.02550 25791 ft 375 kts 40°
2026-04-22 12:40 29.62742 91.04818 26286 ft 383 kts 52°
2026-04-22 12:40 29.64111 91.07477 26759 ft 391 kts 63°
2026-04-22 12:40 29.65046 91.10435 27226 ft 398 kts 74°
2026-04-22 12:40 29.65505 91.13597 27667 ft 405 kts 85°
2026-04-22 12:41 29.65461 91.16855 28114 ft 411 kts 93°
2026-04-22 12:41 29.65386 91.20187 28262 ft 423 kts 88°
2026-04-22 12:41 29.65567 91.23607 28396 ft 435 kts 83°
2026-04-22 12:41 29.66027 91.27085 28523 ft 445 kts 77°
2026-04-22 12:42 29.66780 91.30575 28655 ft 455 kts 72°
2026-04-22 12:42 29.67798 91.34009 28771 ft 464 kts 69°
2026-04-22 12:42 29.68915 91.37576 28904 ft 474 kts 69°
2026-04-22 12:42 29.70045 91.41173 29029 ft 482 kts 69°
2026-04-22 12:43 29.71193 91.44834 29160 ft 490 kts 69°
2026-04-22 12:43 29.72355 91.48550 29278 ft 498 kts 69°
2026-04-22 12:43 29.73409 91.52324 29467 ft 504 kts 76°
2026-04-22 12:43 29.73899 91.56371 29799 ft 507 kts 87°
2026-04-22 12:44 29.73776 91.60425 30103 ft 509 kts 98°
2026-04-22 12:44 29.73069 91.64363 30474 ft 507 kts 109°
2026-04-22 12:44 29.71784 91.68107 30860 ft 502 kts 120°
2026-04-22 12:44 29.69966 91.71516 31275 ft 496 kts 131°
2026-04-22 12:45 29.68498 91.73538 31569 ft 491 kts 138°
2026-04-22 12:45 29.66009 91.76106 32013 ft 482 kts 148°
2026-04-22 12:45 29.63270 91.78291 32466 ft 477 kts 151°
2026-04-22 12:45 29.60531 91.80434 32979 ft 473 kts 151°
2026-04-22 12:46 29.57824 91.82552 33448 ft 470 kts 151°
2026-04-22 12:46 29.55124 91.84658 33896 ft 467 kts 152°
2026-04-22 12:46 29.52445 91.86751 34309 ft 465 kts 151°
2026-04-22 12:46 29.49777 91.88836 34703 ft 464 kts 152°
2026-04-22 12:47 29.47099 91.90928 35001 ft 465 kts 152°
2026-04-22 12:47 29.41732 91.95113 35056 ft 468 kts 151°
2026-04-22 12:48 29.36359 91.99299 35062 ft 468 kts 152°
2026-04-22 12:48 29.31045 92.03659 35056 ft 476 kts 144°
2026-04-22 12:49 29.26829 92.09622 35036 ft 492 kts 123°
2026-04-22 12:49 29.25450 92.13236 34993 ft 499 kts 112°
2026-04-22 12:49 29.24639 92.17108 34970 ft 503 kts 101°
2026-04-22 12:50 29.24282 92.25093 34900 ft 507 kts 94°
2026-04-22 12:50 29.24054 92.33163 34956 ft 508 kts 94°
2026-04-22 12:51 29.23822 92.41231 35008 ft 508 kts 95°
2026-04-22 12:51 29.23942 92.49308 35013 ft 511 kts 82°
2026-04-22 12:51 29.24833 92.53256 35016 ft 513 kts 69°
2026-04-22 12:52 29.26348 92.56945 35008 ft 511 kts 58°
2026-04-22 12:52 29.28391 92.60218 34964 ft 510 kts 47°
2026-04-22 12:52 29.30928 92.63030 34955 ft 506 kts 35°
2026-04-22 12:52 29.33840 92.65245 34944 ft 499 kts 24°
2026-04-22 12:53 29.36875 92.67155 34930 ft 500 kts 24°
2026-04-22 12:53 29.42983 92.71005 34923 ft 501 kts 25°
2026-04-22 12:54 29.49085 92.74869 34917 ft 501 kts 24°
2026-04-22 12:54 29.55181 92.78731 34919 ft 501 kts 24°
2026-04-22 12:55 29.61284 92.82597 34915 ft 501 kts 24°
2026-04-22 12:55 29.67392 92.86469 34909 ft 501 kts 24°
2026-04-22 12:56 29.73504 92.90359 34907 ft 502 kts 24°
2026-04-22 12:56 29.79617 92.94256 34907 ft 503 kts 25°
2026-04-22 12:57 29.85730 92.98158 34904 ft 502 kts 24°
2026-04-22 12:57 29.91787 93.02027 34902 ft 502 kts 24°
2026-04-22 12:58 29.97888 93.06015 34909 ft 506 kts 29°
2026-04-22 12:58 30.03205 93.11419 34915 ft 515 kts 47°
2026-04-22 12:59 30.07812 93.17732 34924 ft 514 kts 47°
2026-04-22 12:59 30.12437 93.24039 34908 ft 514 kts 47°
2026-04-22 13:00 30.17057 93.30353 34907 ft 515 kts 46°
2026-04-22 13:00 30.21675 93.36687 34916 ft 517 kts 47°
2026-04-22 13:01 30.26309 93.43058 34915 ft 517 kts 47°
2026-04-22 13:01 30.30933 93.49437 34913 ft 518 kts 47°
2026-04-22 13:02 30.35552 93.55825 34912 ft 518 kts 47°
2026-04-22 13:02 30.40188 93.62204 34918 ft 517 kts 46°
2026-04-22 13:03 30.44897 93.68516 34913 ft 518 kts 46°
2026-04-22 13:03 30.49641 93.74801 34908 ft 518 kts 46°
2026-04-22 13:04 30.54368 93.81108 34909 ft 519 kts 46°
2026-04-22 13:04 30.59070 93.87443 34917 ft 518 kts 46°
2026-04-22 13:05 30.63774 93.93785 34913 ft 517 kts 46°
2026-04-22 13:05 30.68462 94.00122 34916 ft 517 kts 46°
2026-04-22 13:06 30.73116 94.06406 34917 ft 517 kts 45°
2026-04-22 13:06 30.77802 94.12739 34916 ft 516 kts 46°
2026-04-22 13:07 30.82472 94.19070 34932 ft 516 kts 46°
2026-04-22 13:07 30.87132 94.25393 34931 ft 514 kts 46°
2026-04-22 13:08 30.91784 94.31713 34944 ft 513 kts 46°
2026-04-22 13:08 30.96420 94.38028 34944 ft 512 kts 45°
2026-04-22 13:09 31.01047 94.44332 34942 ft 511 kts 45°
2026-04-22 13:09 31.05663 94.50627 34943 ft 510 kts 46°
2026-04-22 13:10 31.10253 94.56927 34944 ft 508 kts 46°
2026-04-22 13:10 31.14830 94.63215 34937 ft 508 kts 45°
2026-04-22 13:11 31.19409 94.69490 34946 ft 507 kts 45°
2026-04-22 13:11 31.23976 94.75760 34942 ft 506 kts 46°
2026-04-22 13:12 31.28530 94.82027 34954 ft 505 kts 46°
2026-04-22 13:12 31.33073 94.88295 34951 ft 505 kts 45°
2026-04-22 13:13 31.37605 94.94562 34937 ft 504 kts 46°
2026-04-22 13:13 31.42133 95.00834 34926 ft 505 kts 45°
2026-04-22 13:14 31.46659 95.07120 34937 ft 504 kts 46°
2026-04-22 13:14 31.51188 95.13403 34973 ft 506 kts 45°
2026-04-22 13:15 31.55720 95.19725 34977 ft 506 kts 45°
2026-04-22 13:15 31.60254 95.26029 34984 ft 505 kts 45°
2026-04-22 13:16 31.64776 95.32333 34987 ft 505 kts 45°
2026-04-22 13:16 31.69313 95.38670 34998 ft 506 kts 45°
2026-04-22 13:17 31.73836 95.44999 34996 ft 506 kts 45°
2026-04-22 13:17 31.78361 95.51344 35006 ft 507 kts 45°
2026-04-22 13:18 31.82875 95.57710 35005 ft 506 kts 45°
2026-04-22 13:18 31.87393 95.64069 34999 ft 506 kts 45°
2026-04-22 13:19 31.91922 95.70434 35006 ft 507 kts 45°
2026-04-22 13:19 31.96438 95.76810 34984 ft 507 kts 45°
2026-04-22 13:20 32.00919 95.83159 35006 ft 508 kts 45°
2026-04-22 13:20 32.05472 95.89607 35021 ft 508 kts 45°
2026-04-22 13:21 32.09959 95.95965 35022 ft 508 kts 45°
2026-04-22 13:21 32.14475 96.02392 35025 ft 509 kts 45°
2026-04-22 13:22 32.18979 96.08816 35031 ft 508 kts 45°
2026-04-22 13:22 32.23480 96.15242 35029 ft 507 kts 45°
2026-04-22 13:23 32.28033 96.21616 35041 ft 507 kts 44°
2026-04-22 13:23 32.32641 96.27939 35040 ft 507 kts 44°
2026-04-22 13:24 32.37230 96.34264 35045 ft 507 kts 45°
2026-04-22 13:24 32.41802 96.40634 35049 ft 507 kts 45°
2026-04-22 13:25 32.46351 96.47008 35064 ft 506 kts 45°
2026-04-22 13:25 32.50901 96.53367 35077 ft 506 kts 45°
2026-04-22 13:26 32.55442 96.59733 35073 ft 505 kts 45°
2026-04-22 13:26 32.59976 96.66087 35081 ft 505 kts 45°
2026-04-22 13:27 32.64499 96.72443 35074 ft 504 kts 45°
2026-04-22 13:27 32.69012 96.78800 35071 ft 503 kts 45°
2026-04-22 13:28 32.73529 96.85144 35078 ft 503 kts 45°
2026-04-22 13:28 32.78033 96.91501 35077 ft 503 kts 45°
2026-04-22 13:29 32.82536 96.97869 35082 ft 502 kts 45°
2026-04-22 13:29 32.87062 97.04202 35083 ft 501 kts 44°
2026-04-22 13:30 32.91710 97.10365 35085 ft 500 kts 43°
2026-04-22 13:30 32.96407 97.16473 35092 ft 500 kts 43°
2026-04-22 13:31 33.01063 97.22625 35086 ft 499 kts 44°
2026-04-22 13:31 33.04898 97.27762 35097 ft 498 kts 44°
2026-04-22 13:32 33.10273 97.34989 35086 ft 498 kts 44°
2026-04-22 13:32 33.14879 97.41162 35100 ft 498 kts 44°
2026-04-22 13:33 33.19457 97.47289 35096 ft 498 kts 44°
2026-04-22 13:33 33.24053 97.53464 35094 ft 498 kts 44°
2026-04-22 13:34 33.27895 97.58649 35095 ft 497 kts 44°
2026-04-22 13:34 33.32477 97.64826 35101 ft 496 kts 44°
2026-04-22 13:35 33.37053 97.70998 35108 ft 496 kts 44°
2026-04-22 13:35 33.41637 97.77169 35124 ft 495 kts 44°
2026-04-22 13:36 33.46210 97.83255 35124 ft 494 kts 43°
2026-04-22 13:36 33.50844 97.89413 35130 ft 494 kts 44°
2026-04-22 13:37 33.55389 97.95504 35132 ft 493 kts 44°
2026-04-22 13:37 33.60720 98.02670 35136 ft 492 kts 44°
2026-04-22 13:38 33.64506 98.07770 35128 ft 492 kts 44°
2026-04-22 13:38 33.71322 98.16970 35126 ft 492 kts 44°
2026-04-22 13:39 33.75870 98.23109 35130 ft 491 kts 44°
2026-04-22 13:39 33.80414 98.29253 35131 ft 491 kts 44°
2026-04-22 13:40 33.84958 98.35386 35126 ft 491 kts 44°
2026-04-22 13:40 33.89495 98.41549 35123 ft 492 kts 44°
2026-04-22 13:41 33.94027 98.47720 35126 ft 492 kts 44°
2026-04-22 13:41 33.98585 98.53886 35129 ft 493 kts 44°
2026-04-22 13:42 34.03159 98.60007 35142 ft 492 kts 43°
2026-04-22 13:42 34.07724 98.66133 35154 ft 491 kts 43°
2026-04-22 13:43 34.12288 98.72271 35152 ft 491 kts 44°
2026-04-22 13:43 34.16839 98.78405 35152 ft 490 kts 44°
2026-04-22 13:44 34.21375 98.84555 35154 ft 490 kts 44°
2026-04-22 13:44 34.25902 98.90689 35147 ft 490 kts 44°
2026-04-22 13:45 34.30448 98.96835 35141 ft 490 kts 44°
2026-04-22 13:45 34.34983 99.02990 35143 ft 490 kts 44°
2026-04-22 13:46 34.39509 99.09160 35149 ft 490 kts 44°
2026-04-22 13:46 34.44037 99.15331 35146 ft 490 kts 44°
2026-04-22 13:47 34.48568 99.21511 35150 ft 490 kts 44°
2026-04-22 13:47 34.53051 99.27665 35145 ft 490 kts 44°
2026-04-22 13:48 34.57567 99.33857 35144 ft 490 kts 44°
2026-04-22 13:48 34.62100 99.40050 35152 ft 490 kts 44°
2026-04-22 13:49 34.66615 99.46261 35160 ft 491 kts 44°
2026-04-22 13:49 34.71135 99.52488 35162 ft 491 kts 44°
2026-04-22 13:50 34.75649 99.58711 35162 ft 491 kts 44°
2026-04-22 13:50 34.80205 99.64879 35160 ft 490 kts 43°
2026-04-22 13:51 34.84766 99.71031 35165 ft 490 kts 43°
2026-04-22 13:51 34.89311 99.77218 35173 ft 490 kts 43°
2026-04-22 13:52 34.93832 99.83416 35171 ft 488 kts 44°
2026-04-22 13:52 34.98283 99.89599 35148 ft 481 kts 44°
2026-04-22 13:53 35.02656 99.95667 35175 ft 472 kts 43°
2026-04-22 13:53 35.06996 100.01619 35193 ft 467 kts 43°
2026-04-22 13:54 35.11438 100.07616 35193 ft 483 kts 43°
2026-04-22 13:54 35.15956 100.13723 35192 ft 486 kts 43°
2026-04-22 13:55 35.20468 100.19879 35191 ft 486 kts 43°
2026-04-22 13:55 35.24966 100.26044 35192 ft 485 kts 43°
2026-04-22 13:56 35.29457 100.32196 35190 ft 484 kts 43°
2026-04-22 13:56 35.33946 100.38344 35195 ft 484 kts 43°
2026-04-22 13:57 35.38425 100.44496 35200 ft 484 kts 43°
2026-04-22 13:57 35.42901 100.50657 35198 ft 483 kts 43°
2026-04-22 13:58 35.47368 100.56814 35193 ft 483 kts 43°
2026-04-22 13:58 35.51825 100.62975 35195 ft 483 kts 43°
2026-04-22 13:59 35.56292 100.69168 35204 ft 484 kts 43°
2026-04-22 13:59 35.60751 100.75336 35210 ft 484 kts 43°
2026-04-22 14:00 35.65190 100.81496 35209 ft 483 kts 43°
2026-04-22 14:00 35.69659 100.87680 35207 ft 483 kts 43°
2026-04-22 14:01 35.74127 100.93857 35201 ft 483 kts 43°
2026-04-22 14:01 35.76365 100.96953 34970 ft 484 kts 43°
2026-04-22 14:01 35.78593 101.00039 34716 ft 482 kts 43°
2026-04-22 14:02 35.80822 101.03132 34472 ft 482 kts 43°
2026-04-22 14:02 35.83047 101.06222 34229 ft 481 kts 43°
2026-04-22 14:02 35.85265 101.09303 33973 ft 480 kts 44°
2026-04-22 14:02 35.87479 101.12381 33721 ft 478 kts 44°
2026-04-22 14:03 35.89649 101.15415 33470 ft 467 kts 44°
2026-04-22 14:03 35.91768 101.18385 33218 ft 455 kts 44°
2026-04-22 14:03 35.93830 101.21280 32962 ft 445 kts 44°
2026-04-22 14:03 35.95855 101.24119 32715 ft 435 kts 43°
2026-04-22 14:04 35.97836 101.26891 32462 ft 426 kts 43°
2026-04-22 14:04 35.99778 101.29602 32216 ft 418 kts 43°
2026-04-22 14:04 36.01674 101.32283 31963 ft 410 kts 44°
2026-04-22 14:04 36.03496 101.34952 31716 ft 404 kts 45°
2026-04-22 14:05 36.05271 101.37613 31466 ft 398 kts 46°
2026-04-22 14:05 36.07013 101.40248 31216 ft 392 kts 46°
2026-04-22 14:05 36.10404 101.45376 30719 ft 381 kts 45°
2026-04-22 14:06 36.12074 101.47886 30470 ft 376 kts 45°
2026-04-22 14:06 36.13726 101.50360 30214 ft 369 kts 45°
2026-04-22 14:06 36.15354 101.52794 29966 ft 363 kts 45°
2026-04-22 14:06 36.16943 101.55170 29831 ft 354 kts 45°
2026-04-22 14:07 36.18496 101.57496 29522 ft 347 kts 45°
2026-04-22 14:07 36.20055 101.59766 28719 ft 349 kts 39°
2026-04-22 14:07 36.21942 101.61636 27873 ft 347 kts 25°
2026-04-22 14:07 36.24091 101.62912 27244 ft 338 kts 13°
2026-04-22 14:08 36.26343 101.63571 26655 ft 328 kts
2026-04-22 14:08 36.28578 101.63634 26090 ft 318 kts 353°
2026-04-22 14:08 36.30786 101.63536 25528 ft 315 kts 353°
2026-04-22 14:08 36.32990 101.63439 24709 ft 320 kts 353°
2026-04-22 14:09 36.35233 101.63342 23900 ft 324 kts 353°
2026-04-22 14:09 36.37509 101.63245 23069 ft 330 kts 353°
2026-04-22 14:09 36.39820 101.63146 22232 ft 334 kts 354°
2026-04-22 14:09 36.42152 101.63047 21405 ft 337 kts 354°
2026-04-22 14:10 36.44507 101.62946 20577 ft 340 kts 354°
2026-04-22 14:10 36.46870 101.62847 19738 ft 341 kts 354°
2026-04-22 14:10 36.49252 101.62747 18907 ft 342 kts 354°
2026-04-22 14:10 36.51630 101.62648 17973 ft 344 kts 354°
2026-04-22 14:11 36.54049 101.62539 16905 ft 351 kts 354°
2026-04-22 14:11 36.56456 101.62683 15884 ft 359 kts
2026-04-22 14:11 36.58798 101.63975 15017 ft 365 kts 33°
2026-04-22 14:11 36.60715 101.65890 14832 ft 343 kts 43°
2026-04-22 14:12 36.61939 101.68325 14704 ft 328 kts 72°
2026-04-22 14:12 36.62076 101.71060 14573 ft 313 kts 102°
2026-04-22 14:12 36.61456 101.73578 14441 ft 297 kts 109°
2026-04-22 14:12 36.60801 101.75964 14106 ft 290 kts 109°
2026-04-22 14:13 36.60125 101.78400 12972 ft 307 kts 109°
2026-04-22 14:13 36.59378 101.81046 11558 ft 333 kts 109°
2026-04-22 14:13 36.58596 101.83869 10010 ft 354 kts 109°
2026-04-22 14:13 36.57820 101.86688 9673 ft 334 kts 109°
2026-04-22 14:14 36.57081 101.89360 9254 ft 320 kts 108°
2026-04-22 14:14 36.56373 101.91917 8851 ft 307 kts 108°
2026-04-22 14:14 36.55690 101.94383 8453 ft 295 kts 108°
2026-04-22 14:14 36.55052 101.96678 8079 ft 273 kts 108°
2026-04-22 14:15 36.54458 101.98820 7730 ft 252 kts 108°
2026-04-22 14:15 36.53908 102.00801 7407 ft 234 kts 108°
2026-04-22 14:15 36.53394 102.02676 7744 ft 239 kts 107°
2026-04-22 14:15 36.53054 102.04019 8142 ft 252 kts 106°
2026-04-22 14:16 36.52376 102.06811 9622 ft 243 kts 107°
2026-04-22 14:16 36.51843 102.08777 10799 ft 239 kts 108°
2026-04-22 14:16 36.51292 102.10772 11180 ft 245 kts 108°
2026-04-22 14:16 36.50747 102.12756 11180 ft 240 kts 108°
2026-04-22 14:17 36.50229 102.14718 11171 ft 238 kts 103°
2026-04-22 14:17 36.50248 102.16755 11176 ft 237 kts 70°
2026-04-22 14:17 36.50995 102.18541 11175 ft 238 kts 56°
2026-04-22 14:17 36.51918 102.20234 11193 ft 238 kts 54°
2026-04-22 14:18 36.52557 102.21374 11201 ft 238 kts 54°
2026-04-22 14:18 36.53888 102.23536 11197 ft 239 kts 40°
2026-04-22 14:18 36.55356 102.24426 11209 ft 237 kts
2026-04-22 14:18 36.56978 102.24231 11205 ft 237 kts 340°
2026-04-22 14:19 36.57967 102.23603 11191 ft 237 kts 326°
2026-04-22 14:19 36.59763 102.22047 11204 ft 237 kts 323°
2026-04-22 14:19 36.61101 102.20842 11191 ft 237 kts 323°
2026-04-22 14:19 36.62439 102.19632 11191 ft 236 kts 323°
2026-04-22 14:20 36.64434 102.17347 11221 ft 236 kts 301°
2026-04-22 14:20 36.65270 102.15571 11212 ft 236 kts 298°
2026-04-22 14:20 36.66073 102.13779 11198 ft 237 kts 298°
2026-04-22 14:21 36.67667 102.10196 11216 ft 238 kts 298°
2026-04-22 14:21 36.68457 102.08412 11231 ft 237 kts 298°
2026-04-22 14:22 36.70322 102.04206 11223 ft 237 kts 298°
2026-04-22 14:22 36.70849 102.03017 11225 ft 236 kts 298°
2026-04-22 14:22 36.72435 101.99433 11212 ft 235 kts 298°
2026-04-22 14:23 36.73236 101.97640 11202 ft 236 kts 298°
2026-04-22 14:23 36.74037 101.95854 11197 ft 238 kts 298°
2026-04-22 14:23 36.74841 101.94062 11222 ft 238 kts 298°
2026-04-22 14:23 36.75568 101.92230 11232 ft 235 kts 286°
2026-04-22 14:24 36.75698 101.90272 11230 ft 222 kts 261°
2026-04-22 14:24 36.75154 101.88515 11229 ft 217 kts 234°
2026-04-22 14:24 36.74074 101.87232 11227 ft 214 kts 210°
2026-04-22 14:24 36.72766 101.86331 11222 ft 213 kts 208°
2026-04-22 14:25 36.71478 101.85446 11214 ft 208 kts 208°
2026-04-22 14:25 36.70210 101.84574 11202 ft 207 kts 209°
2026-04-22 14:25 36.68949 101.83705 11202 ft 206 kts 209°
2026-04-22 14:25 36.67695 101.82837 11210 ft 206 kts 208°
2026-04-22 14:26 36.66438 101.81966 11210 ft 206 kts 209°
2026-04-22 14:26 36.65184 101.81098 11214 ft 206 kts 209°
2026-04-22 14:26 36.63891 101.80295 11135 ft 211 kts 200°
2026-04-22 14:26 36.62446 101.80012 10839 ft 210 kts 178°
2026-04-22 14:27 36.61028 101.80392 10705 ft 211 kts 158°
2026-04-22 14:27 36.59796 101.81370 10535 ft 211 kts 136°
2026-04-22 14:27 36.58933 101.82798 10304 ft 210 kts 116°
2026-04-22 14:27 36.58425 101.84488 10063 ft 209 kts 108°
2026-04-22 14:28 36.57957 101.86193 9781 ft 208 kts 108°
2026-04-22 14:28 36.57488 101.87891 9509 ft 207 kts 108°
2026-04-22 14:28 36.57020 101.89581 9230 ft 206 kts 108°
2026-04-22 14:28 36.56557 101.91253 8964 ft 200 kts 108°
2026-04-22 14:29 36.56114 101.92853 8703 ft 193 kts 107°
2026-04-22 14:29 36.55685 101.94401 8451 ft 185 kts 107°
2026-04-22 14:29 36.55276 101.95873 8220 ft 172 kts 108°
2026-04-22 14:29 36.54904 101.97211 7991 ft 157 kts 108°
2026-04-22 14:30 36.54554 101.98469 7774 ft 150 kts 107°
2026-04-22 14:30 36.54222 101.99679 7593 ft 146 kts 108°
2026-04-22 14:30 36.53891 102.00869 7412 ft 145 kts 109°
2026-04-22 14:30 36.53560 102.02055 7195 ft 144 kts 108°
2026-04-22 14:31 36.53265 102.03140 7157 ft 128 kts 108°
2026-04-22 14:31 36.52941 102.04301 7570 ft 147 kts 108°
2026-04-22 14:31 36.52617 102.05519 8266 ft 150 kts 107°
2026-04-22 14:31 36.52292 102.06760 8918 ft 153 kts 107°
2026-04-22 14:32 36.52103 102.08118 9101 ft 168 kts 80°
2026-04-22 14:32 36.52707 102.09383 9248 ft 181 kts 38°
2026-04-22 14:32 36.53924 102.09851 9386 ft 193 kts 358°
2026-04-22 14:32 36.55203 102.09254 9516 ft 203 kts 329°
2026-04-22 14:33 36.56397 102.08249 9673 ft 217 kts 325°
2026-04-22 14:33 36.57678 102.07131 10086 ft 230 kts 325°
2026-04-22 14:33 36.58998 102.05983 10666 ft 233 kts 325°
2026-04-22 14:33 36.60323 102.04840 11135 ft 237 kts 325°
2026-04-22 14:34 36.61699 102.03670 11219 ft 236 kts 325°
2026-04-22 14:34 36.63056 102.02521 11226 ft 235 kts 325°
2026-04-22 14:34 36.64409 102.01375 11227 ft 235 kts 326°
2026-04-22 14:34 36.65753 102.00231 11226 ft 234 kts 325°
2026-04-22 14:35 36.67096 101.99085 11229 ft 235 kts 325°
2026-04-22 14:35 36.68421 101.97958 11230 ft 234 kts 325°
2026-04-22 14:35 36.69749 101.96813 11226 ft 235 kts 321°
2026-04-22 14:35 36.70764 101.95228 11229 ft 235 kts 294°
2026-04-22 14:36 36.71072 101.93253 11227 ft 234 kts 266°
2026-04-22 14:36 36.70620 101.91333 11229 ft 233 kts 240°
2026-04-22 14:36 36.69583 101.89795 11225 ft 232 kts 226°
2026-04-22 14:36 36.68464 101.88342 11225 ft 233 kts 226°
2026-04-22 14:37 36.67336 101.86879 11226 ft 234 kts 226°
2026-04-22 14:37 36.66210 101.85419 11227 ft 234 kts 226°
2026-04-22 14:37 36.65084 101.83953 11228 ft 234 kts 226°
2026-04-22 14:37 36.63963 101.82495 11230 ft 233 kts 225°
2026-04-22 14:38 36.62778 101.81121 11226 ft 233 kts 212°
2026-04-22 14:38 36.61240 101.80569 10890 ft 236 kts 179°
2026-04-22 14:38 36.59734 101.81274 10547 ft 232 kts 140°
2026-04-22 14:38 36.58860 101.82876 10300 ft 222 kts 110°
2026-04-22 14:39 36.58362 101.84674 10030 ft 216 kts 107°
2026-04-22 14:39 36.57896 101.86402 9747 ft 206 kts 108°
2026-04-22 14:39 36.57445 101.88042 9479 ft 195 kts 107°
2026-04-22 14:40 36.56606 101.91074 8991 ft 177 kts 108°
2026-04-22 14:40 36.56215 101.92488 8763 ft 170 kts 108°
2026-04-22 14:40 36.55837 101.93853 8539 ft 164 kts 108°
2026-04-22 14:40 36.55475 101.95146 8331 ft 153 kts 108°
2026-04-22 14:41 36.55134 101.96374 8111 ft 148 kts 108°
2026-04-22 14:41 36.54803 101.97578 7917 ft 146 kts 107°
2026-04-22 14:41 36.54472 101.98768 7730 ft 145 kts 108°
2026-04-22 14:41 36.54151 101.99954 7556 ft 144 kts 107°
2026-04-22 14:42 36.53819 102.01132 7361 ft 144 kts 108°
2026-04-22 14:42 36.53490 102.02309 7180 ft 143 kts 108°
2026-04-22 14:42 36.53208 102.03322 7143 ft 102 kts 109°
2026-04-22 14:42 36.53034 102.03954 7134 ft 52 kts 109°
2026-04-22 14:43 36.52933 102.04226 7133 ft 29 kts 127°
2026-04-22 14:43 36.52806 102.04377 7132 ft 14 kts 156°
2026-04-22 14:43 36.52761 102.04308 7133 ft 12 kts 284°
2026-04-22 14:43 36.52791 102.04198 7135 ft 14 kts 289°
2026-04-22 14:44 36.52825 102.04073 7134 ft 16 kts 289°
2026-04-22 14:44 36.52793 102.03988 7137 ft 13 kts 195°
2026-04-22 14:44 36.52739 102.04068 7131 ft 14 kts 108°
2026-04-22 14:44 36.52709 102.04121 7136 ft 7 kts 173°
2026-04-22 14:45 36.52667 102.04103 7133 ft 4 kts 199°
2026-04-22 14:45 36.52657 102.04099 7133 ft 0 kts 199°